Louisville Bowman, KY

11:23 PM EDT on September 18, 2019 (GMT -0400)
Bowman

Weather History for KLOU - August, 2019

Change the Weather History Date:

Thursday, August 22, 2019

  Actual Average Record
Temperature  
Mean Temperature 79 °F 78 °F  
Max Temperature 86 °F 87 °F 100 °F (1983)
Min Temperature 71 °F 68 °F 49 °F (1950)
Degree Days  
Heating Degree Days 0 0  
Month to date heating degree days 0 0  
Since 1 June heating degree days 5 3  
Since 1 July heating degree days 0 0  
Cooling Degree Days 14 12  
Month to date cooling degree days 328 285  
Year to date cooling degree days 1269 1135  
Since 1 June cooling degree days 1073 988  
Growing Degree Days 28 (Base 50)    
Moisture  
Dew Point 69 °F    
Average Humidity 73    
Maximum Humidity 90    
Minimum Humidity 55    
Precipitation  
Precipitation 0.62 in 0.09 in 1.32 in (1970)
Month to date precipitation 1.28 2.37  
Year to date precipitation 41.25 30.60  
Sea Level Pressure  
Sea Level Pressure 29.97 in    
Wind  
Wind Speed 5 mph (West)    
Max Wind Speed 24 mph    
Max Gust Speed 40 mph    
Visibility 9 miles    
Events Rain , Thunderstorm    
T = Trace of Precipitation, MM = Missing Value Source: NWS Daily Summary

Daily Weather History Graph

Daily Weather History Graph

Search for Another Location

Airport or City:

Astronomy

Aug. 22, 2019 Rise Set
Actual Time 7:03 AM EDT 8:27 PM EDT
Civil Twilight 6:35 AM EDT 8:54 PM EDT
Nautical Twilight 6:02 AM EDT 9:27 PM EDT
Astronomical Twilight 5:27 AM EDT 10:02 PM EDT
Moon No Moon Rise 1:32 PM EDT (8/22)
Length of Visible Light 14h 19m
Length of Day
13h 23m
Waning Gibbous, 60% of the Moon is Illuminated
Aug 22
Waning Gibbous
Aug 23
Last Quarter
Aug 30
New
Sep 5
First Quarter
Sep 14
Full

Hourly Weather History & Observations

Time (EDT) Temp. Heat Index Dew Point Humidity Pressure Visibility Wind Dir Wind Speed Gust Speed Precip Events Conditions
12:53 AM 79.0 °F - 73.0 °F 82% 29.95 in 10.0 mi Calm Calm - N/A   Clear
1:53 AM 78.1 °F - 73.0 °F 84% 29.94 in 10.0 mi Calm Calm - N/A   Clear
2:53 AM 79.0 °F - 73.0 °F 82% 29.94 in 10.0 mi SSE 3.5 mph - N/A   Scattered Clouds
3:23 AM 79.0 °F - 73.0 °F 82% 29.94 in 10.0 mi Calm Calm - N/A Thunderstorm Mostly Cloudy
3:43 AM 73.0 °F - 68.0 °F 84% 29.98 in 1.5 mi WNW 21.9 mph 40.3 mph 0.25 in Rain , Thunderstorm Heavy Thunderstorms and Rain
3:53 AM 72.0 °F - 68.0 °F 87% 29.99 in 1.2 mi WNW 17.3 mph 32.2 mph 0.52 in Rain , Thunderstorm Heavy Thunderstorms and Rain
3:57 AM 72.0 °F - 68.0 °F 87% 30.01 in 2.5 mi West 12.7 mph 31.1 mph 0.01 in Rain , Thunderstorm Heavy Thunderstorms and Rain
4:03 AM 73.0 °F - 68.0 °F 84% 30.03 in 7.0 mi West 18.4 mph 27.6 mph 0.01 in Rain , Thunderstorm Light Thunderstorms and Rain
4:11 AM 73.0 °F - 68.0 °F 84% 30.05 in 10.0 mi WSW 8.1 mph 27.6 mph 0.01 in Rain , Thunderstorm Light Thunderstorms and Rain
4:53 AM 72.0 °F - 66.9 °F 84% 29.99 in 10.0 mi North 6.9 mph - 0.05 in Rain , Thunderstorm Thunderstorms and Rain
5:53 AM 72.0 °F - 66.9 °F 84% 29.97 in 10.0 mi NW 4.6 mph - 0.05 in   Mostly Cloudy
6:53 AM 71.1 °F - 68.0 °F 90% 29.97 in 10.0 mi SSE 3.5 mph - N/A   Scattered Clouds
7:53 AM 72.0 °F - 68.0 °F 87% 29.97 in 10.0 mi South 3.5 mph - N/A   Clear
8:53 AM 73.0 °F - 68.0 °F 84% 29.99 in 10.0 mi SW 5.8 mph - N/A   Clear
9:53 AM 75.0 °F - 68.0 °F 79% 30.00 in 10.0 mi South 8.1 mph - N/A   Mostly Cloudy
10:53 AM 77.0 °F - 68.0 °F 74% 30.01 in 10.0 mi SSW 11.5 mph - N/A   Mostly Cloudy
11:53 AM 79.0 °F - 69.1 °F 72% 30.01 in 10.0 mi SW 5.8 mph - N/A   Scattered Clouds
12:53 PM 79.0 °F - 69.1 °F 72% 30.01 in 10.0 mi SW 5.8 mph - N/A   Mostly Cloudy
1:53 PM 80.1 °F 82.7 °F 68.0 °F 67% 29.99 in 10.0 mi SW 6.9 mph - 0.00 in Rain Light Rain
2:53 PM 84.0 °F 87.0 °F 68.0 °F 58% 29.96 in 10.0 mi West 5.8 mph - 0.00 in   Clear
3:53 PM 84.0 °F 86.5 °F 66.9 °F 56% 29.95 in 10.0 mi NNW 4.6 mph - N/A   Clear
4:53 PM 84.9 °F 87.1 °F 66.0 °F 53% 29.94 in 10.0 mi West 8.1 mph - N/A   Partly Cloudy
5:53 PM 84.0 °F 86.3 °F 66.0 °F 55% 29.94 in 10.0 mi West 6.9 mph - N/A   Clear
6:53 PM 82.9 °F 85.4 °F 66.9 °F 58% 29.94 in 10.0 mi WNW 3.5 mph - N/A   Clear
7:53 PM 81.0 °F 83.3 °F 66.9 °F 62% 29.93 in 10.0 mi Calm Calm - N/A   Mostly Cloudy
8:53 PM 80.1 °F 82.9 °F 69.1 °F 69% 29.93 in 10.0 mi Calm Calm - N/A   Clear
9:53 PM 77.0 °F - 69.1 °F 76% 29.95 in 10.0 mi Calm Calm - N/A   Scattered Clouds
10:53 PM 77.0 °F - 70.0 °F 79% 29.97 in 10.0 mi NW 4.6 mph - N/A   Partly Cloudy
11:53 PM 75.9 °F - 70.0 °F 82% 29.97 in 10.0 mi NW 3.5 mph - N/A   Scattered Clouds